CW0146 Weather Reports


Display with metric or nautical units.
time (UTC)temp
F
wind
direction
speed
MPH
gust
MPH
rain 1hr
in
rain 24hr
in
rain mn
in
humidity
%
barometer
mb
20260901065954 82 45 0.0 1.0 0.00 0.00 0.00 73 1016.0
20260901065455 82 166 0.0 2.0 0.00 0.00 0.00 74 1016.0
20260901064954 82 129 1.0 2.0 0.00 0.00 0.00 74 1016.0
20260901064457 82 152 1.0 2.0 0.00 0.00 0.00 74 1016.0
20260901063954 83 177 1.0 2.0 0.00 0.00 0.00 73 1016.0
20260901063454 83 184 1.0 3.0 0.00 0.00 0.00 73 1016.0
20260901062954 83 136 1.0 2.0 0.00 0.00 0.00 72 1016.0
20260901062454 83 122 0.0 1.0 0.00 0.00 0.00 72 1016.0
20260901061954 83 126 1.0 3.0 0.00 0.00 0.00 71 1016.0
20260901061455 83 176 1.0 4.0 0.00 0.00 0.00 71 1016.0
20260901060954 83 173 2.0 4.0 0.00 0.00 0.00 70 1016.0
20260901060454 83 147 1.0 3.0 0.00 0.00 0.00 70 1016.0
20260901055954 83 157 1.0 3.0 0.00 0.00 0.00 69 1016.0
20260901055454 83 95 1.0 2.0 0.00 0.00 0.00 69 1016.0
20260901054954 84 180 3.0 7.0 0.00 0.00 0.00 68 1016.0
20260901054455 84 162 2.0 4.0 0.00 0.00 0.00 67 1016.0
20260901054002 84 115 2.0 3.0 0.00 0.00 0.00 67 1016.0
20260901053455 84 129 1.0 2.0 0.00 0.00 0.00 66 1016.0
20260901052954 84 149 1.0 2.0 0.00 0.00 0.00 66 1016.0
20260901052455 84 151 2.0 4.0 0.00 0.00 0.00 65 1016.0
20260901051955 85 119 2.0 3.0 0.00 0.00 0.00 65 1016.0
20260901051454 85 201 2.0 4.0 0.00 0.00 0.00 65 1016.0
20260901050955 85 153 1.0 2.0 0.00 0.00 0.00 65 1016.0
20260901050455 85 142 2.0 3.0 0.00 0.00 0.00 65 1016.0
20260901045954 85 181 2.0 4.0 0.00 0.00 0.00 65 1015.0
20260901045454 85 178 2.0 4.0 0.00 0.00 0.00 64 1015.0
20260901044954 85 182 3.0 6.0 0.00 0.00 0.00 64 1015.0
20260901044459 85 139 1.0 3.0 0.00 0.00 0.00 63 1015.0
20260901043954 85 129 1.0 2.0 0.00 0.00 0.00 63 1015.0
20260901043454 86 134 2.0 4.0 0.00 0.00 0.00 63 1015.0
20260901042955 86 101 1.0 2.0 0.00 0.00 0.00 62 1015.0
20260901042455 86 123 2.0 5.0 0.00 0.00 0.00 62 1015.0
20260901041955 86 113 1.0 1.0 0.00 0.00 0.00 62 1015.0
20260901041457 86 125 2.0 4.0 0.00 0.00 0.00 61 1015.0
20260901040954 86 107 1.0 4.0 0.00 0.00 0.00 61 1015.0
20260901040454 86 107 2.0 3.0 0.00 0.00 0.00 60 1015.0
20260901035955 87 134 1.0 3.0 0.00 0.00 0.00 60 1015.0
20260901035454 87 87 1.0 3.0 0.00 0.00 0.00 59 1015.0
20260901034954 87 109 2.0 3.0 0.00 0.00 0.00 59 1015.0
20260901034454 87 167 1.0 2.0 0.00 0.00 0.00 58 1015.0
20260901033954 87 139 1.0 2.0 0.00 0.00 0.00 57 1015.0
20260901033454 87 118 1.0 3.0 0.00 0.00 0.00 57 1015.0
20260901032955 88 108 2.0 4.0 0.00 0.00 0.00 56 1015.0
20260901032455 88 95 2.0 3.0 0.00 0.00 0.00 55 1015.0
20260901031954 88 103 2.0 3.0 0.00 0.00 0.00 54 1015.0
20260901031454 88 122 2.0 3.0 0.00 0.00 0.00 53 1015.0
20260901030957 88 110 2.0 4.0 0.00 0.00 0.00 52 1015.0
20260901030458 89 118 2.0 4.0 0.00 0.00 0.00 52 1015.0
20260901025955 89 121 2.0 4.0 0.00 0.00 0.00 51 1015.0
20260901025456 89 100 2.0 5.0 0.00 0.00 0.00 49 1015.0
20260901024954 89 132 2.0 4.0 0.00 0.00 0.00 48 1015.0
20260901024455 89 110 1.0 4.0 0.00 0.00 0.00 47 1015.0
20260901023954 89 121 2.0 5.0 0.00 0.00 0.00 46 1015.0
20260901023456 89 119 1.0 3.0 0.00 0.00 0.00 45 1014.0
20260901022954 89 118 1.0 2.0 0.00 0.00 0.00 44 1014.0
20260901022454 89 129 0.0 1.0 0.00 0.00 0.00 43 1014.0
20260901021955 89 102 0.0 2.0 0.00 0.00 0.00 44 1014.0
20260901021455 90 86 0.0 1.0 0.00 0.00 0.00 43 1014.0
20260901020954 90 93 1.0 2.0 0.00 0.00 0.00 42 1014.0
20260901020454 90 175 0.0 1.0 0.00 0.00 0.00 42 1014.0
20260901015954 90 116 0.0 1.0 0.00 0.00 0.00 42 1014.0
20260901015454 91 131 0.0 2.0 0.00 0.00 0.00 42 1014.0
20260901014955 91 183 0.0 1.0 0.00 0.00 0.00 42 1014.0
20260901014455 91 101 0.0 1.0 0.00 0.00 0.00 42 1014.0
20260901013954 91 104 0.0 1.0 0.00 0.00 0.00 42 1014.0
20260901013454 92 170 0.0 1.0 0.00 0.00 0.00 41 1014.0
20260901012954 92 360 0.0 0.0 0.00 0.00 0.00 41 1014.0
20260901012455 92 79 1.0 2.0 0.00 0.00 0.00 40 1014.0
20260901011954 92 104 1.0 2.0 0.00 0.00 0.00 40 1014.0
20260901011456 92 121 1.0 2.0 0.00 0.00 0.00 40 1014.0
20260901010955 93 141 0.0 2.0 0.00 0.00 0.00 40 1014.0
20260901010454 93 128 0.0 2.0 0.00 0.00 0.00 39 1014.0
20260901005955 93 96 0.0 2.0 0.00 0.00 0.00 39 1014.0
20260901005454 94 103 1.0 2.0 0.00 0.00 0.00 39 1014.0
20260901004956 94 134 0.0 1.0 0.00 0.00 0.00 39 1013.0
20260901004456 94 131 1.0 2.0 0.00 0.00 0.00 38 1013.0
20260901003954 94 96 1.0 2.0 0.00 0.00 0.00 37 1014.0
20260901003455 95 117 1.0 2.0 0.00 0.00 0.00 37 1013.0
20260901002955 95 114 1.0 2.0 0.00 0.00 0.00 37 1013.0
20260901002454 96 100 2.0 4.0 0.00 0.00 0.00 37 1013.0
20260901001955 96 100 2.0 4.0 0.00 0.00 0.00 36 1013.0
20260901001455 96 134 1.0 2.0 0.00 0.00 0.00 36 1013.0
20260901000954 97 122 1.0 2.0 0.00 0.00 0.00 35 1013.0
20260901000454 97 131 2.0 3.0 0.00 0.00 0.00 34 1013.0
20260831235954 97 99 2.0 5.0 0.00 0.00 0.00 34 1013.0
20260831235455 98 96 2.0 3.0 0.00 0.00 0.00 35 1013.0
20260831234955 98 164 1.0 2.0 0.00 0.00 0.00 36 1013.0
20260831234455 98 114 1.0 2.0 0.00 0.00 0.00 35 1013.0
20260831233955 99 159 2.0 2.0 0.00 0.00 0.00 35 1013.0
20260831233455 99 152 2.0 4.0 0.00 0.00 0.00 34 1013.0
20260831232954 99 141 2.0 3.0 0.00 0.00 0.00 34 1013.0
20260831232454 99 103 2.0 3.0 0.00 0.00 0.00 34 1013.0
20260831231956 98 114 1.0 2.0 0.00 0.00 0.00 34 1013.0
20260831231456 99 121 2.0 3.0 0.00 0.00 0.00 35 1013.0
20260831230954 99 90 2.0 3.0 0.00 0.00 0.00 34 1013.0
20260831230455 99 160 2.0 2.0 0.00 0.00 0.00 35 1013.0
20260831225957 99 164 2.0 3.0 0.00 0.00 0.00 34 1013.0
20260831225455 99 139 1.0 2.0 0.00 0.00 0.00 35 1013.0
20260831224958 99 174 3.0 4.0 0.00 0.00 0.00 35 1013.0
20260831224454 100 101 2.0 4.0 0.00 0.00 0.00 34 1013.0
20260831223954 100 143 2.0 3.0 0.00 0.00 0.00 35 1013.0
20260831223455 100 131 2.0 2.0 0.00 0.00 0.00 36 1013.0
20260831222955 100 136 1.0 2.0 0.00 0.00 0.00 34 1013.0
20260831222455 100 173 2.0 4.0 0.00 0.00 0.00 35 1013.0
20260831221956 100 187 2.0 4.0 0.00 0.00 0.00 35 1014.0
20260831221455 100 89 2.0 4.0 0.00 0.00 0.00 33 1014.0
20260831220955 100 174 2.0 3.0 0.00 0.00 0.00 32 1013.0
20260831220457 100 151 2.0 4.0 0.00 0.00 0.00 33 1014.0
20260831215955 99 174 2.0 4.0 0.00 0.00 0.00 33 1014.0
20260831215454 100 122 1.0 2.0 0.00 0.00 0.00 33 1014.0
20260831214954 100 93 3.0 4.0 0.00 0.00 0.00 31 1014.0
20260831214455 100 82 1.0 2.0 0.00 0.00 0.00 34 1014.0
20260831213955 100 162 2.0 3.0 0.00 0.00 0.00 36 1014.0
20260831213455 100 111 2.0 3.0 0.00 0.00 0.00 35 1014.0
20260831212955 100 165 2.0 3.0 0.00 0.00 0.00 32 1014.0
20260831212454 99 176 2.0 5.0 0.00 0.00 0.00 34 1014.0
20260831211954 99 126 2.0 3.0 0.00 0.00 0.00 37 1014.0
20260831211454 99 141 2.0 5.0 0.00 0.00 0.00 38 1014.0
20260831210955 98 206 1.0 3.0 0.00 0.00 0.00 38 1014.0
20260831210455 98 178 2.0 5.0 0.00 0.00 0.00 36 1014.0
20260831205954 97 118 2.0 4.0 0.00 0.00 0.00 38 1014.0
20260831205455 97 129 1.0 2.0 0.00 0.00 0.00 40 1014.0
20260831204955 98 107 2.0 3.0 0.00 0.00 0.00 38 1015.0
20260831204454 98 187 3.0 5.0 0.00 0.00 0.00 38 1015.0
20260831203954 97 176 3.0 5.0 0.00 0.00 0.00 39 1015.0
20260831203455 96 119 1.0 2.0 0.00 0.00 0.00 41 1015.0
20260831202954 96 159 2.0 4.0 0.00 0.00 0.00 41 1015.0
20260831202455 96 168 2.0 3.0 0.00 0.00 0.00 41 1015.0
20260831201955 96 146 2.0 3.0 0.00 0.00 0.00 40 1015.0
20260831201455 96 104 1.0 2.0 0.00 0.00 0.00 40 1015.0
20260831200954 96 120 1.0 2.0 0.00 0.00 0.00 42 1015.0
20260831200455 97 102 2.0 3.0 0.00 0.00 0.00 42 1015.0
20260831195954 98 125 2.0 3.0 0.00 0.00 0.00 42 1015.0
20260831195024 98 103 2.0 6.0 0.00 0.00 0.00 40 1015.0
20260831194455 98 155 2.0 3.0 0.00 0.00 0.00 39 1015.0
20260831193959 98 104 1.0 2.0 0.00 0.00 0.00 38 1016.0
20260831193456 98 157 2.0 3.0 0.00 0.00 0.00 41 1016.0
20260831192955 98 153 2.0 4.0 0.00 0.00 0.00 41 1016.0
20260831192458 98 179 2.0 4.0 0.00 0.00 0.00 42 1016.0
20260831191955 98 170 2.0 5.0 0.00 0.00 0.00 42 1016.0
20260831191454 97 148 2.0 4.0 0.00 0.00 0.00 42 1016.0
20260831190955 96 162 2.0 4.0 0.00 0.00 0.00 44 1016.0
20260831190456 96 172 4.0 5.0 0.00 0.00 0.00 42 1016.0
20260831185954 95 188 2.0 4.0 0.00 0.00 0.00 44 1016.0
20260831185454 95 127 2.0 3.0 0.00 0.00 0.00 45 1016.0
20260831184955 96 105 1.0 4.0 0.00 0.00 0.00 43 1016.0
20260831184454 97 94 2.0 4.0 0.00 0.00 0.00 42 1016.0
20260831183955 96 149 2.0 4.0 0.00 0.00 0.00 41 1016.0
20260831183456 96 153 2.0 5.0 0.00 0.00 0.00 41 1016.0
20260831182955 96 175 4.0 7.0 0.00 0.00 0.00 43 1016.0
20260831182455 95 92 2.0 4.0 0.00 0.00 0.00 44 1016.0
20260831181956 95 109 2.0 3.0 0.00 0.00 0.00 44 1016.0
20260831181456 95 182 2.0 3.0 0.00 0.00 0.00 48 1016.0
20260831180956 95 101 2.0 3.0 0.00 0.00 0.00 44 1017.0
20260831180455 95 141 2.0 2.0 0.00 0.00 0.00 45 1017.0
20260831175955 95 119 2.0 2.0 0.00 0.00 0.00 46 1017.0
20260831175455 95 187 3.0 4.0 0.00 0.00 0.00 43 1017.0
20260831174955 94 125 2.0 4.0 0.00 0.00 0.00 47 1017.0
20260831174454 93 88 2.0 4.0 0.00 0.00 0.00 48 1017.0
20260831173954 93 168 2.0 3.0 0.00 0.00 0.00 49 1017.0
20260831173455 93 178 2.0 4.0 0.00 0.00 0.00 51 1017.0
20260831172954 93 184 4.0 7.0 0.00 0.00 0.00 50 1017.0
20260831172456 92 172 2.0 4.0 0.00 0.00 0.00 52 1017.0
20260831171956 92 165 2.0 4.0 0.00 0.00 0.00 54 1017.0
20260831171454 92 189 4.0 6.0 0.00 0.00 0.00 54 1017.0
20260831170955 92 171 3.0 5.0 0.00 0.00 0.00 50 1017.0
20260831170457 92 162 3.0 6.0 0.00 0.00 0.00 52 1017.0
20260831165954 91 112 1.0 3.0 0.00 0.00 0.00 54 1017.0
20260831165454 91 84 2.0 3.0 0.00 0.00 0.00 53 1017.0
20260831164955 91 197 2.0 5.0 0.00 0.00 0.00 58 1017.0
20260831164455 91 148 1.0 3.0 0.00 0.00 0.00 56 1017.0
20260831163955 91 185 2.0 4.0 0.00 0.00 0.00 55 1017.0
20260831163454 90 157 3.0 5.0 0.00 0.00 0.00 56 1017.0
20260831162955 89 120 2.0 3.0 0.00 0.00 0.00 57 1017.0
20260831162456 89 171 2.0 4.0 0.00 0.00 0.00 62 1017.0
20260831161954 89 146 2.0 3.0 0.00 0.00 0.00 62 1017.0
20260831161455 89 172 4.0 6.0 0.00 0.00 0.00 63 1017.0
20260831160955 89 171 2.0 4.0 0.00 0.00 0.00 63 1017.0
20260831160455 89 185 2.0 3.0 0.00 0.00 0.00 62 1017.0
20260831155955 88 196 2.0 3.0 0.00 0.00 0.00 64 1017.0
20260831155457 88 213 3.0 7.0 0.00 0.00 0.00 62 1017.0
20260831154954 87 202 1.0 2.0 0.00 0.00 0.00 64 1017.0
20260831154457 87 188 2.0 4.0 0.00 0.00 0.00 65 1017.0
20260831153955 86 114 2.0 3.0 0.00 0.00 0.00 65 1017.0
20260831153454 85 188 2.0 3.0 0.00 0.00 0.00 71 1017.0
20260831152955 85 250 1.0 2.0 0.00 0.00 0.00 73 1017.0
20260831152455 85 177 2.0 3.0 0.00 0.00 0.00 73 1017.0
20260831152000 85 171 2.0 4.0 0.00 0.00 0.00 74 1017.0
20260831151454 84 269 1.0 2.0 0.00 0.00 0.00 74 1017.0
20260831150955 84 190 2.0 5.0 0.00 0.00 0.00 74 1017.0
20260831150455 83 218 1.0 2.0 0.00 0.00 0.00 75 1017.0
20260831145954 82 207 2.0 2.0 0.00 0.00 0.00 76 1017.0
20260831145454 82 170 3.0 4.0 0.00 0.00 0.00 77 1017.0
20260831144955 82 217 1.0 2.0 0.00 0.00 0.00 77 1017.0
20260831144454 82 179 2.0 3.0 0.00 0.00 0.00 78 1017.0
20260831143955 82 188 2.0 4.0 0.00 0.00 0.00 78 1017.0
20260831143455 82 174 2.0 4.0 0.00 0.00 0.00 79 1017.0
20260831142956 81 182 2.0 4.0 0.00 0.00 0.00 79 1017.0
20260831142454 81 149 2.0 5.0 0.00 0.00 0.00 79 1017.0
20260831141956 81 168 3.0 5.0 0.00 0.00 0.00 80 1017.0
20260831141455 81 178 2.0 4.0 0.00 0.00 0.00 81 1017.0
20260831140955 81 171 2.0 4.0 0.00 0.00 0.00 83 1017.0
20260831140455 81 171 3.0 6.0 0.00 0.00 0.00 83 1017.0
20260831135954 80 173 3.0 6.0 0.00 0.00 0.00 83 1017.0
20260831135456 80 165 2.0 4.0 0.00 0.00 0.00 84 1017.0
20260831134954 80 182 2.0 4.0 0.00 0.00 0.00 84 1017.0
20260831134455 80 209 2.0 3.0 0.00 0.00 0.00 85 1017.0
20260831133954 80 166 2.0 4.0 0.00 0.00 0.00 85 1017.0
20260831133454 80 179 2.0 3.0 0.00 0.00 0.00 85 1017.0
20260831132954 80 181 2.0 3.0 0.00 0.00 0.00 85 1017.0
20260831132454 80 172 2.0 4.0 0.00 0.00 0.00 85 1017.0
20260831131954 80 169 3.0 5.0 0.00 0.00 0.00 86 1017.0
20260831131458 80 172 2.0 3.0 0.00 0.00 0.00 86 1017.0
20260831130955 79 197 1.0 2.0 0.00 0.00 0.00 87 1017.0
20260831130454 79 173 2.0 4.0 0.00 0.00 0.00 88 1017.0
20260831125956 79 175 2.0 3.0 0.00 0.00 0.00 88 1017.0
20260831125455 79 187 2.0 3.0 0.00 0.00 0.00 88 1017.0
20260831124955 79 174 1.0 2.0 0.00 0.00 0.00 88 1016.0
20260831124454 79 360 0.0 0.0 0.00 0.00 0.00 88 1016.0
20260831123955 79 185 1.0 2.0 0.00 0.00 0.00 88 1016.0
20260831123454 79 207 0.0 1.0 0.00 0.00 0.00 88 1016.0
20260831122955 79 182 2.0 4.0 0.00 0.00 0.00 88 1016.0
20260831122454 79 178 1.0 4.0 0.00 0.00 0.00 87 1016.0
20260831121955 79 185 1.0 2.0 0.00 0.00 0.00 87 1016.0
20260831121454 79 161 3.0 4.0 0.00 0.00 0.00 88 1016.0
20260831120955 79 169 2.0 5.0 0.00 0.00 0.00 88 1016.0
20260831120454 79 163 1.0 3.0 0.00 0.00 0.00 87 1016.0
20260831115955 79 175 2.0 4.0 0.00 0.00 0.00 87 1016.0
20260831115455 79 168 2.0 5.0 0.00 0.00 0.00 87 1016.0
20260831114955 79 159 2.0 4.0 0.00 0.00 0.00 88 1016.0
20260831114454 79 168 1.0 2.0 0.00 0.00 0.00 88 1016.0
20260831113954 79 179 2.0 4.0 0.00 0.00 0.00 88 1016.0
20260831113454 79 243 0.0 1.0 0.00 0.00 0.00 88 1016.0
20260831112954 79 199 2.0 3.0 0.00 0.00 0.00 87 1016.0
20260831112455 79 176 1.0 5.0 0.00 0.00 0.00 87 1016.0
20260831111954 79 173 2.0 3.0 0.00 0.00 0.00 87 1016.0
20260831111456 79 174 2.0 4.0 0.00 0.00 0.00 86 1016.0
20260831110954 79 177 3.0 6.0 0.00 0.00 0.00 86 1016.0
20260831110457 79 163 2.0 4.0 0.00 0.00 0.00 86 1016.0
20260831105954 79 174 2.0 4.0 0.00 0.00 0.00 86 1016.0
20260831105454 80 193 1.0 2.0 0.00 0.00 0.00 86 1016.0
20260831104954 80 184 3.0 5.0 0.00 0.00 0.00 86 1016.0
20260831104455 80 173 3.0 4.0 0.00 0.00 0.00 86 1016.0
20260831103954 80 163 2.0 3.0 0.00 0.00 0.00 85 1016.0
20260831103455 80 171 4.0 6.0 0.00 0.00 0.00 85 1016.0
20260831102954 80 177 4.0 5.0 0.00 0.00 0.00 85 1016.0
20260831102456 80 165 3.0 6.0 0.00 0.00 0.00 85 1016.0
20260831101955 80 188 1.0 2.0 0.00 0.00 0.00 85 1016.0
20260831101456 80 184 1.0 4.0 0.00 0.00 0.00 85 1016.0
20260831100955 80 174 3.0 4.0 0.00 0.00 0.00 86 1016.0
20260831100454 80 175 3.0 4.0 0.00 0.00 0.00 86 1016.0
20260831095954 80 164 2.0 4.0 0.00 0.00 0.00 86 1016.0
20260831095455 80 172 2.0 4.0 0.00 0.00 0.00 85 1016.0
20260831094954 80 165 2.0 4.0 0.00 0.00 0.00 85 1016.0
20260831094456 80 177 1.0 3.0 0.00 0.00 0.00 85 1016.0
20260831093955 79 166 3.0 5.0 0.00 0.00 0.00 86 1016.0
20260831093454 79 174 2.0 4.0 0.00 0.00 0.00 86 1016.0
20260831092954 79 167 2.0 4.0 0.00 0.00 0.00 86 1016.0
20260831092455 79 168 4.0 7.0 0.00 0.00 0.00 86 1016.0
20260831091954 79 166 3.0 5.0 0.00 0.00 0.00 86 1016.0
20260831091454 79 178 2.0 4.0 0.00 0.00 0.00 85 1016.0
20260831090954 79 172 3.0 4.0 0.00 0.00 0.00 85 1016.0
20260831090455 79 163 3.0 7.0 0.00 0.00 0.00 85 1016.0
20260831085954 79 167 2.0 4.0 0.00 0.00 0.00 85 1016.0
20260831085455 79 174 5.0 7.0 0.00 0.00 0.00 85 1016.0
20260831084955 79 158 1.0 3.0 0.00 0.00 0.00 85 1016.0
20260831084454 80 183 3.0 6.0 0.00 0.00 0.00 84 1016.0
20260831083954 80 178 2.0 4.0 0.00 0.00 0.00 84 1016.0
20260831083458 80 186 4.0 10.0 0.00 0.00 0.00 84 1016.0
20260831082954 80 182 2.0 6.0 0.00 0.00 0.00 84 1016.0
20260831082454 80 164 4.0 9.0 0.00 0.00 0.00 84 1016.0
20260831081954 80 172 2.0 4.0 0.00 0.00 0.00 84 1016.0
20260831081455 80 167 3.0 6.0 0.00 0.00 0.00 83 1016.0
20260831080955 80 181 5.0 9.0 0.00 0.00 0.00 83 1016.0
20260831080454 80 178 4.0 6.0 0.00 0.00 0.00 82 1016.0
20260831075955 80 177 4.0 6.0 0.00 0.00 0.00 82 1016.0
20260831075454 80 185 2.0 6.0 0.00 0.00 0.00 81 1016.0
20260831074954 81 178 3.0 5.0 0.00 0.00 0.00 81 1016.0
20260831074454 81 173 3.0 7.0 0.00 0.00 0.00 79 1016.0
20260831073954 81 178 2.0 5.0 0.00 0.00 0.00 79 1016.0
20260831073455 81 159 3.0 6.0 0.00 0.00 0.00 78 1016.0
20260831072955 81 161 1.0 2.0 0.00 0.00 0.00 77 1016.0
20260831072455 81 179 4.0 8.0 0.00 0.00 0.00 77 1016.0
20260831071957 81 177 2.0 4.0 0.00 0.00 0.00 76 1016.0
20260831071454 81 181 4.0 6.0 0.00 0.00 0.00 76 1016.0
20260831070956 81 182 1.0 3.0 0.00 0.00 0.00 76 1016.0
20260831070454 82 150 1.0 3.0 0.00 0.00 0.00 75 1016.0